Time,TemperatureF,DewpointF,PressureIn,WindDirection,WindDirectionDegrees,WindSpeedMPH,WindSpeedGustMPH,Humidity,HourlyPrecipIn,Conditions,Clouds,dailyrainin,SoftwareType,DateUTC
2013-02-28 00:00:00,44.9,43.8,29.66,North,4,5.8,17.3,96,0.01,,BKN050,0.01,VWS V14.00,2013-02-28 05:00:00,
2013-02-28 00:05:00,45.0,43.7,29.66,NNW,338,7.4,21.6,95,0.01,,BKN050,0.00,VWS V14.00,2013-02-28 05:05:00,
2013-02-28 00:10:00,45.0,43.8,29.66,North,357,3.4,21.6,95,0.01,,BKN050,0.00,VWS V14.00,2013-02-28 05:10:00,
2013-02-28 00:15:00,44.7,43.3,29.66,North,359,5.3,21.6,95,0.01,,BKN050,0.00,VWS V14.00,2013-02-28 05:15:00,
2013-02-28 00:20:00,44.7,43.2,29.66,NW,314,0.0,9.4,95,0.01,,BKN050,0.00,VWS V14.00,2013-02-28 05:20:00,
2013-02-28 00:25:00,44.4,43.0,29.65,NNW,339,5.5,9.4,95,0.00,,BKN050,0.00,VWS V14.00,2013-02-28 05:25:00,
2013-02-28 00:30:00,44.4,42.8,29.65,North,0,5.5,10.4,94,0.00,,BKN050,0.00,VWS V14.00,2013-02-28 05:30:00,
2013-02-28 00:35:00,44.2,42.6,29.65,NNW,347,3.4,7.5,94,0.00,,BKN050,0.00,VWS V14.00,2013-02-28 05:35:00,
2013-02-28 00:40:00,44.2,42.6,29.65,NNW,346,3.3,9.7,94,0.00,,BKN050,0.00,VWS V14.00,2013-02-28 05:40:00,
2013-02-28 00:45:00,43.9,42.3,29.65,North,8,3.4,9.7,94,0.00,,BKN070,0.00,VWS V14.00,2013-02-28 05:45:00,
2013-02-28 00:50:00,43.7,42.1,29.65,NNW,332,0.0,6.6,94,0.00,,BKN070,0.00,VWS V14.00,2013-02-28 05:50:00,
2013-02-28 00:55:00,43.6,42.0,29.64,North,359,0.0,6.6,94,0.00,,BKN070,0.00,VWS V14.00,2013-02-28 05:55:00,
2013-02-28 01:00:00,43.6,42.0,29.65,NW,319,0.0,6.6,94,0.00,,BKN070,0.00,VWS V14.00,2013-02-28 06:00:00,
2013-02-28 01:05:00,43.5,42.0,29.64,NNW,343,0.0,3.3,94,0.00,,BKN070,0.00,VWS V14.00,2013-02-28 06:05:00,
2013-02-28 01:10:00,43.2,41.8,29.64,North,3,0.0,3.3,95,0.00,,BKN070,0.00,VWS V14.00,2013-02-28 06:10:00,
2013-02-28 01:15:00,43.0,41.7,29.65,North,3,0.0,3.3,95,0.00,,BKN070,0.00,VWS V14.00,2013-02-28 06:15:00,
2013-02-28 01:20:00,42.8,41.6,29.65,North,3,0.0,0.0,96,0.00,,BKN070,0.00,VWS V14.00,2013-02-28 06:20:00,
2013-02-28 01:25:00,42.7,41.5,29.65,North,3,0.0,3.2,96,0.00,,BKN070,0.00,VWS V14.00,2013-02-28 06:25:00,
2013-02-28 01:30:00,42.5,41.3,29.65,North,3,0.0,3.2,96,0.00,,BKN070,0.00,VWS V14.00,2013-02-28 06:30:00,
2013-02-28 01:35:00,42.6,41.4,29.65,North,3,0.0,0.0,96,0.00,,BKN070,0.00,VWS V14.00,2013-02-28 06:35:00,
2013-02-28 01:40:00,42.5,41.4,29.65,North,3,0.0,0.0,96,0.00,,BKN070,0.00,VWS V14.00,2013-02-28 06:40:00,
2013-02-28 01:45:00,42.5,41.4,29.65,WNW,283,0.0,3.1,96,0.00,,BKN049,0.00,VWS V14.00,2013-02-28 06:45:00,
2013-02-28 01:50:00,42.5,41.4,29.65,NW,322,0.0,4.8,96,0.00,,BKN049,0.00,VWS V14.00,2013-02-28 06:50:00,
2013-02-28 01:55:00,42.1,41.1,29.65,NW,322,0.0,4.8,96,0.00,,BKN049,0.00,VWS V14.00,2013-02-28 06:55:00,
2013-02-28 02:00:00,41.9,41.0,29.64,NW,322,0.0,4.8,97,0.00,,BKN049,0.00,VWS V14.00,2013-02-28 07:00:00,
2013-02-28 02:05:00,41.6,40.7,29.64,NW,322,0.0,0.0,96,0.00,,BKN049,0.00,VWS V14.00,2013-02-28 07:05:00,
2013-02-28 02:10:00,41.3,40.3,29.64,NW,322,0.0,0.0,96,0.00,,BKN049,0.00,VWS V14.00,2013-02-28 07:10:00,
2013-02-28 02:15:00,41.7,40.5,29.64,WNW,287,0.0,5.3,96,0.00,,BKN049,0.00,VWS V14.00,2013-02-28 07:15:00,
2013-02-28 02:20:00,41.6,40.2,29.64,WNW,287,0.0,0.0,95,0.00,,BKN049,0.00,VWS V14.00,2013-02-28 07:20:00,
2013-02-28 02:25:00,41.9,40.1,29.64,WNW,285,0.0,8.7,93,0.00,,BKN049,0.00,VWS V14.00,2013-02-28 07:25:00,
2013-02-28 02:30:00,42.2,40.0,29.64,NNW,336,7.3,8.8,92,0.00,,BKN049,0.00,VWS V14.00,2013-02-28 07:30:00,
2013-02-28 02:35:00,42.4,39.5,29.64,West,266,2.5,9.4,89,0.00,,BKN049,0.00,VWS V14.00,2013-02-28 07:35:00,
2013-02-28 02:40:00,42.4,38.9,29.63,NW,315,0.0,9.4,87,0.00,,BKN049,0.00,VWS V14.00,2013-02-28 07:40:00,
2013-02-28 02:45:00,42.5,38.7,29.64,NNW,347,0.0,9.4,86,0.00,,CLR,0.00,VWS V14.00,2013-02-28 07:45:00,
2013-02-28 02:50:00,42.3,39.3,29.64,NNW,335,0.0,2.5,89,0.00,,CLR,0.00,VWS V14.00,2013-02-28 07:50:00,
2013-02-28 02:55:00,41.5,39.4,29.64,NNW,335,0.0,2.5,92,0.00,,CLR,0.00,VWS V14.00,2013-02-28 07:55:00,
2013-02-28 03:00:00,41.2,39.5,29.64,NNW,335,0.0,2.5,94,0.00,,CLR,0.00,VWS V14.00,2013-02-28 08:00:00,
2013-02-28 03:05:00,40.5,39.1,29.64,North,3,0.0,1.9,95,0.00,,CLR,0.00,VWS V14.00,2013-02-28 08:05:00,
2013-02-28 03:10:00,40.4,39.3,29.63,North,3,0.0,1.9,96,0.00,,CLR,0.00,VWS V14.00,2013-02-28 08:10:00,
2013-02-28 03:15:00,40.3,39.4,29.64,North,3,0.0,1.9,97,0.00,,CLR,0.00,VWS V14.00,2013-02-28 08:15:00,
2013-02-28 03:20:00,40.4,39.5,29.64,North,3,0.0,0.0,97,0.00,,CLR,0.00,VWS V14.00,2013-02-28 08:20:00,
2013-02-28 03:25:00,40.1,39.4,29.64,North,3,0.0,0.0,97,0.00,,CLR,0.00,VWS V14.00,2013-02-28 08:25:00,
2013-02-28 03:30:00,40.0,39.3,29.64,North,3,0.0,0.0,98,0.00,,CLR,0.00,VWS V14.00,2013-02-28 08:30:00,
2013-02-28 03:35:00,39.9,39.1,29.64,North,349,0.0,5.5,97,0.00,,CLR,0.00,VWS V14.00,2013-02-28 08:35:00,
2013-02-28 03:40:00,40.0,39.0,29.64,NNW,330,0.0,5.7,96,0.00,,CLR,0.00,VWS V14.00,2013-02-28 08:40:00,
2013-02-28 03:45:00,40.3,39.2,29.64,NNW,335,0.0,5.7,96,0.00,,CLR,0.00,VWS V14.00,2013-02-28 08:45:00,
2013-02-28 03:50:00,40.1,38.9,29.64,NNW,335,0.0,0.0,96,0.00,,CLR,0.00,VWS V14.00,2013-02-28 08:50:00,
2013-02-28 03:55:00,40.0,38.8,29.64,NNW,335,0.0,0.0,95,0.00,,CLR,0.00,VWS V14.00,2013-02-28 08:55:00,
2013-02-28 04:00:00,40.0,38.7,29.64,NW,304,0.0,8.0,95,0.00,,CLR,0.00,VWS V14.00,2013-02-28 09:00:00,
2013-02-28 04:05:00,39.9,38.5,29.64,NNW,343,6.8,6.8,94,0.00,,CLR,0.00,VWS V14.00,2013-02-28 09:05:00,
2013-02-28 04:10:00,40.0,38.3,29.64,NW,323,0.0,6.8,94,0.00,,CLR,0.00,VWS V14.00,2013-02-28 09:10:00,
2013-02-28 04:15:00,39.8,38.0,29.64,NNW,333,3.5,7.5,93,0.00,,CLR,0.00,VWS V14.00,2013-02-28 09:15:00,
2013-02-28 04:20:00,40.0,38.0,29.64,North,359,4.5,8.1,92,0.00,,CLR,0.00,VWS V14.00,2013-02-28 09:20:00,
2013-02-28 04:25:00,40.0,37.8,29.64,NW,319,5.2,8.1,92,0.00,,CLR,0.00,VWS V14.00,2013-02-28 09:25:00,
2013-02-28 04:30:00,39.9,37.5,29.64,NW,304,0.0,8.1,91,0.00,,CLR,0.00,VWS V14.00,2013-02-28 09:30:00,
2013-02-28 04:35:00,39.8,37.3,29.64,NW,323,0.0,4.5,91,0.00,,CLR,0.00,VWS V14.00,2013-02-28 09:35:00,
2013-02-28 04:40:00,39.8,37.2,29.65,West,263,0.0,4.9,90,0.00,,CLR,0.00,VWS V14.00,2013-02-28 09:40:00,
2013-02-28 04:45:00,39.6,37.0,29.65,West,263,0.0,4.9,90,0.00,,CLR,0.00,VWS V14.00,2013-02-28 09:45:00,
2013-02-28 04:50:00,39.4,37.0,29.65,West,263,0.0,0.0,91,0.00,,CLR,0.00,VWS V14.00,2013-02-28 09:50:00,
2013-02-28 04:55:00,39.2,36.9,29.65,West,263,0.0,0.0,92,0.00,,CLR,0.00,VWS V14.00,2013-02-28 09:55:00,
2013-02-28 05:00:00,39.0,36.7,29.65,West,263,0.0,0.0,91,0.00,,CLR,0.00,VWS V14.00,2013-02-28 10:00:00,
2013-02-28 05:05:00,38.7,36.4,29.65,West,263,0.0,0.0,91,0.00,,CLR,0.00,VWS V14.00,2013-02-28 10:05:00,
2013-02-28 05:10:00,38.6,36.2,29.66,West,263,0.0,0.0,91,0.00,,CLR,0.00,VWS V14.00,2013-02-28 10:10:00,
2013-02-28 05:15:00,38.4,36.0,29.66,West,263,0.0,0.0,91,0.00,,CLR,0.00,VWS V14.00,2013-02-28 10:15:00,
2013-02-28 05:20:00,38.0,35.7,29.66,West,263,0.0,0.0,91,0.00,,CLR,0.00,VWS V14.00,2013-02-28 10:20:00,
2013-02-28 05:25:00,37.0,34.7,29.66,West,263,0.0,0.0,91,0.00,,CLR,0.00,VWS V14.00,2013-02-28 10:25:00,
2013-02-28 05:30:00,37.2,34.8,29.66,West,263,0.0,0.0,91,0.00,,CLR,0.00,VWS V14.00,2013-02-28 10:30:00,
2013-02-28 05:35:00,37.5,35.1,29.66,West,263,0.0,0.0,91,0.00,,CLR,0.00,VWS V14.00,2013-02-28 10:35:00,
2013-02-28 05:40:00,36.9,34.5,29.66,West,263,0.0,0.0,91,0.00,,CLR,0.00,VWS V14.00,2013-02-28 10:40:00,
2013-02-28 05:45:00,35.4,33.1,29.66,West,263,0.0,0.0,91,0.00,,FEW060,0.00,VWS V14.00,2013-02-28 10:45:00,
2013-02-28 05:50:00,37.8,35.7,29.66,West,263,0.0,0.0,92,0.00,,FEW060,0.00,VWS V14.00,2013-02-28 10:50:00,
2013-02-28 05:55:00,37.7,35.6,29.66,West,263,0.0,0.0,92,0.00,,FEW060,0.00,VWS V14.00,2013-02-28 10:55:00,
2013-02-28 06:00:00,37.7,35.6,29.66,West,263,0.0,0.0,92,0.00,,FEW060,0.00,VWS V14.00,2013-02-28 11:00:00,
2013-02-28 06:05:00,37.7,35.6,29.67,West,263,0.0,0.0,92,0.00,,FEW060,0.00,VWS V14.00,2013-02-28 11:05:00,
2013-02-28 06:10:00,37.7,35.5,29.66,West,263,0.0,0.0,92,0.00,,FEW060,0.00,VWS V14.00,2013-02-28 11:10:00,
2013-02-28 06:15:00,37.5,35.3,29.66,West,263,0.0,0.0,92,0.00,,FEW060,0.00,VWS V14.00,2013-02-28 11:15:00,
2013-02-28 06:20:00,37.5,35.5,29.67,West,263,0.0,0.0,92,0.00,,FEW060,0.00,VWS V14.00,2013-02-28 11:20:00,
2013-02-28 06:25:00,37.1,35.1,29.67,West,263,0.0,0.0,92,0.00,,FEW060,0.00,VWS V14.00,2013-02-28 11:25:00,
2013-02-28 06:31:00,37.4,35.3,29.67,West,263,0.0,0.0,92,0.00,,FEW060,0.00,VWS V14.00,2013-02-28 11:31:00,
2013-02-28 06:35:00,37.2,35.2,29.67,West,263,0.0,0.0,92,0.00,,FEW060,0.00,VWS V14.00,2013-02-28 11:35:00,
2013-02-28 06:41:00,36.8,34.9,29.67,West,263,0.0,0.0,93,0.00,,FEW060,0.00,VWS V14.00,2013-02-28 11:41:00,
2013-02-28 06:46:00,36.8,35.0,29.67,West,263,0.0,0.0,93,0.00,,SCT060,0.00,VWS V14.00,2013-02-28 11:46:00,
2013-02-28 06:51:00,36.6,35.0,29.67,West,263,0.0,0.0,94,0.00,,SCT060,0.00,VWS V14.00,2013-02-28 11:51:00,
2013-02-28 06:56:00,36.8,35.0,29.67,West,263,0.0,0.0,93,0.00,,SCT060,0.00,VWS V14.00,2013-02-28 11:56:00,
2013-02-28 07:01:00,36.8,34.9,29.67,West,263,0.0,0.0,93,0.00,,SCT060,0.00,VWS V14.00,2013-02-28 12:01:00,
2013-02-28 07:06:00,37.1,35.2,29.67,NW,326,0.0,4.7,93,0.00,,SCT060,0.00,VWS V14.00,2013-02-28 12:06:00,
2013-02-28 07:11:00,37.0,35.0,29.67,West,259,0.0,4.7,92,0.00,,SCT060,0.00,VWS V14.00,2013-02-28 12:11:00,
2013-02-28 07:16:00,37.0,34.8,29.67,West,262,0.0,0.0,92,0.00,,SCT060,0.00,VWS V14.00,2013-02-28 12:16:00,
2013-02-28 07:21:00,36.8,34.4,29.67,West,262,0.0,0.0,91,0.00,,SCT060,0.00,VWS V14.00,2013-02-28 12:21:00,
2013-02-28 07:26:00,36.4,33.9,29.67,West,262,0.0,0.0,91,0.00,,SCT060,0.00,VWS V14.00,2013-02-28 12:26:00,
2013-02-28 07:31:00,37.6,35.0,29.67,West,262,0.0,0.0,90,0.00,,SCT060,0.00,VWS V14.00,2013-02-28 12:31:00,
2013-02-28 07:36:00,37.7,35.1,29.67,West,262,0.0,0.0,90,0.00,,SCT060,0.00,VWS V14.00,2013-02-28 12:36:00,
2013-02-28 07:41:00,36.9,34.3,29.67,West,262,0.0,0.0,90,0.00,,SCT060,0.00,VWS V14.00,2013-02-28 12:41:00,
2013-02-28 07:46:00,37.4,34.9,29.67,West,262,0.0,0.0,90,0.00,,SCT060,0.00,VWS V14.00,2013-02-28 12:46:00,
2013-02-28 07:51:00,37.1,34.6,29.67,West,262,0.0,0.0,91,0.00,,SCT060,0.00,VWS V14.00,2013-02-28 12:51:00,
2013-02-28 07:56:00,37.5,35.0,29.67,West,262,0.0,0.0,91,0.00,,SCT060,0.00,VWS V14.00,2013-02-28 12:56:00,
2013-02-28 08:01:00,37.9,35.1,29.68,West,262,0.0,0.0,90,0.00,,SCT060,0.00,VWS V14.00,2013-02-28 13:01:00,
2013-02-28 08:06:00,38.5,35.4,29.68,West,276,0.0,5.2,88,0.00,,SCT060,0.00,VWS V14.00,2013-02-28 13:06:00,
2013-02-28 08:11:00,37.8,34.4,29.68,West,276,0.0,5.2,87,0.00,,SCT060,0.00,VWS V14.00,2013-02-28 13:11:00,
2013-02-28 08:16:00,35.5,31.7,29.68,West,276,0.0,0.0,86,0.00,,SCT060,0.00,VWS V14.00,2013-02-28 13:16:00,
2013-02-28 08:21:00,37.1,32.7,29.68,NNW,328,4.5,9.9,84,0.00,,SCT060,0.00,VWS V14.00,2013-02-28 13:21:00,
2013-02-28 08:26:00,39.8,34.7,29.68,WNW,291,3.2,9.9,82,0.00,,SCT060,0.00,VWS V14.00,2013-02-28 13:26:00,
2013-02-28 08:31:00,40.3,34.7,29.69,North,349,5.0,5.0,80,0.00,,SCT060,0.00,VWS V14.00,2013-02-28 13:31:00,
2013-02-28 08:36:00,41.1,35.0,29.69,NW,323,5.6,11.7,79,0.00,,SCT060,0.00,VWS V14.00,2013-02-28 13:36:00,
2013-02-28 08:41:00,41.4,34.7,29.69,NNW,342,5.8,13.5,77,0.00,,SCT060,0.00,VWS V14.00,2013-02-28 13:41:00,
2013-02-28 08:46:00,41.5,34.6,29.69,NNW,347,5.8,5.9,76,0.00,,SCT060,0.00,VWS V14.00,2013-02-28 13:46:00,
2013-02-28 08:51:00,41.7,34.5,29.69,WNW,300,5.5,10.4,76,0.00,,SCT060,0.00,VWS V14.00,2013-02-28 13:51:00,
2013-02-28 08:56:00,41.4,34.0,29.69,North,7,8.4,11.4,75,0.00,,SCT060,0.00,VWS V14.00,2013-02-28 13:56:00,
2013-02-28 09:01:00,41.3,34.0,29.69,NNW,338,6.3,6.5,75,0.00,,SCT060,0.00,VWS V14.00,2013-02-28 14:01:00,
2013-02-28 09:06:00,41.1,33.7,29.69,WNW,295,5.1,14.8,75,0.00,,SCT060,0.00,VWS V14.00,2013-02-28 14:06:00,
2013-02-28 09:11:00,41.0,33.9,29.69,NNW,328,7.3,14.8,76,0.00,,SCT060,0.00,VWS V14.00,2013-02-28 14:11:00,
2013-02-28 09:16:00,41.1,34.1,29.69,North,349,5.4,5.4,76,0.00,,SCT060,0.00,VWS V14.00,2013-02-28 14:16:00,
2013-02-28 09:21:00,41.0,34.0,29.69,NNE,14,5.7,12.2,76,0.00,,SCT060,0.00,VWS V14.00,2013-02-28 14:21:00,
2013-02-28 09:26:00,41.3,34.4,29.70,NW,322,6.9,12.2,76,0.00,,SCT060,0.00,VWS V14.00,2013-02-28 14:26:00,
2013-02-28 09:31:00,41.6,34.8,29.70,NNE,18,9.2,9.2,77,0.00,,SCT060,0.00,VWS V14.00,2013-02-28 14:31:00,
2013-02-28 09:36:00,41.8,34.3,29.70,NNW,333,7.1,13.4,75,0.00,,SCT060,0.00,VWS V14.00,2013-02-28 14:36:00,
2013-02-28 09:41:00,42.0,34.6,29.70,NNE,27,4.9,13.4,75,0.00,,SCT060,0.00,VWS V14.00,2013-02-28 14:41:00,
2013-02-28 09:46:00,42.0,34.3,29.70,WNW,301,6.2,6.4,74,0.00,,BKN060,0.00,VWS V14.00,2013-02-28 14:46:00,
2013-02-28 09:51:00,42.0,34.6,29.70,NNE,15,3.2,9.8,75,0.00,,BKN060,0.00,VWS V14.00,2013-02-28 14:51:00,
2013-02-28 09:56:00,41.6,33.9,29.70,North,352,3.5,9.8,74,0.00,,BKN060,0.00,VWS V14.00,2013-02-28 14:56:00,
2013-02-28 10:01:00,41.5,33.7,29.70,NW,323,5.8,9.8,74,0.00,,BKN060,0.00,VWS V14.00,2013-02-28 15:01:00,
2013-02-28 10:06:00,41.4,33.4,29.70,NW,307,9.9,13.6,73,0.00,,BKN060,0.00,VWS V14.00,2013-02-28 15:06:00,
2013-02-28 10:11:00,41.6,33.4,29.70,NNW,342,5.7,13.6,72,0.00,,BKN060,0.00,VWS V14.00,2013-02-28 15:11:00,
2013-02-28 10:16:00,41.7,33.1,29.70,North,357,8.6,11.4,71,0.00,,BKN060,0.00,VWS V14.00,2013-02-28 15:16:00,
2013-02-28 10:21:00,41.6,33.2,29.70,NW,322,4.3,11.4,72,0.00,,BKN060,0.00,VWS V14.00,2013-02-28 15:21:00,
2013-02-28 10:26:00,42.0,33.0,29.70,NNW,336,6.3,12.2,70,0.00,,BKN060,0.00,VWS V14.00,2013-02-28 15:26:00,
2013-02-28 10:31:00,42.1,32.9,29.70,NW,311,9.1,9.1,70,0.00,,BKN060,0.00,VWS V14.00,2013-02-28 15:31:00,
2013-02-28 10:36:00,42.3,32.7,29.70,NW,322,11.0,16.0,68,0.00,,BKN060,0.00,VWS V14.00,2013-02-28 15:36:00,
2013-02-28 10:41:00,42.3,32.5,29.70,NNW,338,7.5,16.0,68,0.00,,BKN060,0.00,VWS V14.00,2013-02-28 15:41:00,
2013-02-28 10:46:00,42.8,33.2,29.70,NE,39,7.3,7.3,69,0.00,,BKN065,0.00,VWS V14.00,2013-02-28 15:46:00,
2013-02-28 10:51:00,43.3,32.4,29.70,NW,305,8.4,17.3,65,0.00,,BKN065,0.00,VWS V14.00,2013-02-28 15:51:00,
2013-02-28 10:56:00,43.6,32.5,29.70,NE,35,7.5,17.3,65,0.00,,BKN065,0.00,VWS V14.00,2013-02-28 15:56:00,
2013-02-28 11:01:00,43.1,31.2,29.70,NW,322,16.8,20.5,63,0.00,,BKN065,0.00,VWS V14.00,2013-02-28 16:01:00,
2013-02-28 11:06:00,42.8,30.8,29.70,NNW,330,11.4,20.9,62,0.00,,BKN065,0.00,VWS V14.00,2013-02-28 16:06:00,
2013-02-28 11:11:00,42.5,30.2,29.70,NNW,336,7.2,20.9,61,0.00,,BKN065,0.00,VWS V14.00,2013-02-28 16:11:00,
2013-02-28 11:16:00,42.5,30.7,29.70,North,349,7.0,8.9,63,0.00,,BKN065,0.00,VWS V14.00,2013-02-28 16:16:00,
2013-02-28 11:21:00,43.4,31.5,29.71,North,349,10.0,13.4,63,0.00,,BKN065,0.00,VWS V14.00,2013-02-28 16:21:00,
2013-02-28 11:26:00,42.5,30.9,29.71,NNE,21,7.0,13.4,63,0.00,,BKN065,0.00,VWS V14.00,2013-02-28 16:26:00,
2013-02-28 11:31:00,42.2,30.3,29.71,NNE,27,6.8,11.6,62,0.00,,BKN065,0.00,VWS V14.00,2013-02-28 16:31:00,
2013-02-28 11:36:00,42.4,31.2,29.70,NW,323,10.5,11.6,64,0.00,,BKN065,0.00,VWS V14.00,2013-02-28 16:36:00,
2013-02-28 11:41:00,42.6,30.5,29.70,North,6,7.7,14.2,62,0.00,,BKN065,0.00,VWS V14.00,2013-02-28 16:41:00,
2013-02-28 11:46:00,44.1,31.5,29.70,NNW,343,9.4,9.4,61,0.00,,BKN050,0.00,VWS V14.00,2013-02-28 16:46:00,
2013-02-28 11:51:00,42.2,29.9,29.69,NNE,32,9.5,13.6,61,0.00,,BKN050,0.00,VWS V14.00,2013-02-28 16:51:00,
2013-02-28 11:56:00,39.9,26.9,29.70,NNW,343,14.2,15.8,59,0.00,,BKN050,0.00,VWS V14.00,2013-02-28 16:56:00,
2013-02-28 12:01:00,40.8,27.9,29.70,NNW,329,15.0,16.9,60,0.00,,BKN050,0.00,VWS V14.00,2013-02-28 17:01:00,
2013-02-28 12:06:00,41.6,28.2,29.70,NNE,21,15.9,18.5,59,0.00,,BKN050,0.00,VWS V14.00,2013-02-28 17:06:00,
2013-02-28 12:11:00,42.3,27.3,29.70,North,357,5.0,18.5,55,0.00,,BKN050,0.00,VWS V14.00,2013-02-28 17:11:00,
2013-02-28 12:16:00,44.4,29.0,29.70,WNW,297,8.6,11.4,54,0.00,,BKN050,0.00,VWS V14.00,2013-02-28 17:16:00,
2013-02-28 12:21:00,43.0,27.4,29.70,WSW,255,13.1,17.7,54,0.00,,BKN050,0.00,VWS V14.00,2013-02-28 17:21:00,
2013-02-28 12:26:00,43.4,28.4,29.70,NNE,27,3.4,17.7,55,0.00,,BKN050,0.00,VWS V14.00,2013-02-28 17:26:00,
2013-02-28 12:31:00,42.8,27.8,29.70,WSW,253,8.6,12.5,55,0.00,,BKN050,0.00,VWS V14.00,2013-02-28 17:31:00,
2013-02-28 12:36:00,42.6,27.5,29.70,WSW,249,13.9,17.9,55,0.00,,BKN050,0.00,VWS V14.00,2013-02-28 17:36:00,
2013-02-28 12:41:00,42.9,28.1,29.70,North,350,3.3,17.9,56,0.00,,BKN050,0.00,VWS V14.00,2013-02-28 17:41:00,
2013-02-28 12:46:00,43.5,28.4,29.69,NNE,32,6.2,10.2,55,0.00,,BKN050,0.00,VWS V14.00,2013-02-28 17:46:00,
2013-02-28 12:51:00,44.4,29.1,29.69,NNE,31,0.0,10.2,55,0.00,,BKN050,0.00,VWS V14.00,2013-02-28 17:51:00,
2013-02-28 12:56:00,43.3,28.4,29.69,NW,316,8.0,11.9,55,0.00,,BKN050,0.00,VWS V14.00,2013-02-28 17:56:00,
2013-02-28 13:01:00,43.0,27.8,29.70,NW,312,6.5,16.2,55,0.00,,BKN050,0.00,VWS V14.00,2013-02-28 18:01:00,
2013-02-28 13:06:00,42.5,27.9,29.70,WNW,294,5.8,16.2,56,0.00,,BKN050,0.00,VWS V14.00,2013-02-28 18:06:00,
2013-02-28 13:11:00,42.0,27.8,29.70,NNW,328,3.5,16.2,57,0.00,,BKN050,0.00,VWS V14.00,2013-02-28 18:11:00,
2013-02-28 13:16:00,42.3,28.4,29.70,NW,318,6.9,9.6,58,0.00,,BKN050,0.00,VWS V14.00,2013-02-28 18:16:00,
2013-02-28 13:21:00,42.3,28.7,29.70,North,359,5.3,10.3,58,0.00,,BKN050,0.00,VWS V14.00,2013-02-28 18:21:00,
2013-02-28 13:26:00,42.1,28.3,29.69,North,8,9.0,11.8,58,0.00,,BKN050,0.00,VWS V14.00,2013-02-28 18:26:00,
2013-02-28 13:31:00,41.9,27.8,29.69,NW,319,7.9,10.7,57,0.00,,BKN050,0.00,VWS V14.00,2013-02-28 18:31:00,
2013-02-28 13:36:00,42.4,28.0,29.69,North,11,7.1,15.8,56,0.00,,BKN050,0.00,VWS V14.00,2013-02-28 18:36:00,
2013-02-28 13:41:00,42.0,27.2,29.68,WNW,285,7.8,15.8,55,0.00,,BKN050,0.00,VWS V14.00,2013-02-28 18:41:00,
2013-02-28 13:46:00,43.5,28.1,29.68,NNW,342,11.0,11.3,54,0.00,,BKN055,0.00,VWS V14.00,2013-02-28 18:46:00,
2013-02-28 13:51:00,42.7,27.0,29.68,West,270,7.8,11.3,53,0.00,,BKN055,0.00,VWS V14.00,2013-02-28 18:51:00,
2013-02-28 13:56:00,43.4,26.5,29.68,North,4,13.0,18.8,51,0.00,,BKN055,0.00,VWS V14.00,2013-02-28 18:56:00,
2013-02-28 14:01:00,44.5,27.7,29.68,NNE,17,8.9,8.9,51,0.00,,BKN055,0.00,VWS V14.00,2013-02-28 19:01:00,
2013-02-28 14:06:00,44.0,27.7,29.68,NNW,336,12.5,17.9,52,0.00,,BKN055,0.00,VWS V14.00,2013-02-28 19:06:00,
2013-02-28 14:11:00,43.2,27.1,29.68,NNW,328,7.7,19.9,53,0.00,,BKN055,0.00,VWS V14.00,2013-02-28 19:11:00,
2013-02-28 14:16:00,40.3,24.7,29.68,WSW,246,7.8,16.0,53,0.00,,BKN055,0.00,VWS V14.00,2013-02-28 19:16:00,
2013-02-28 14:21:00,42.0,26.6,29.68,North,356,9.8,16.0,54,0.00,,BKN055,0.00,VWS V14.00,2013-02-28 19:21:00,
2013-02-28 14:26:00,42.0,27.3,29.69,NNE,13,5.5,16.0,56,0.00,,BKN055,0.00,VWS V14.00,2013-02-28 19:26:00,
2013-02-28 14:31:00,42.4,27.1,29.68,North,3,10.4,11.2,54,0.00,,BKN055,0.00,VWS V14.00,2013-02-28 19:31:00,
2013-02-28 14:36:00,42.1,26.7,29.68,NW,321,9.9,14.6,54,0.00,,BKN055,0.00,VWS V14.00,2013-02-28 19:36:00,
2013-02-28 14:41:00,42.2,26.6,29.69,NW,326,9.1,18.1,54,0.00,,BKN055,0.00,VWS V14.00,2013-02-28 19:41:00,
2013-02-28 14:46:00,42.3,26.6,29.69,North,356,13.4,13.9,53,0.00,,BKN060,0.00,VWS V14.00,2013-02-28 19:46:00,
2013-02-28 14:51:00,42.1,26.6,29.69,WNW,302,8.3,15.0,54,0.00,,BKN060,0.00,VWS V14.00,2013-02-28 19:51:00,
2013-02-28 14:56:00,42.3,27.4,29.69,West,273,5.0,15.0,55,0.00,,BKN060,0.00,VWS V14.00,2013-02-28 19:56:00,
2013-02-28 15:01:00,42.4,26.6,29.69,NNW,332,5.7,12.2,53,0.00,,BKN060,0.00,VWS V14.00,2013-02-28 20:01:00,
2013-02-28 15:06:00,41.4,25.5,29.69,North,8,5.4,12.4,53,0.00,,BKN060,0.00,VWS V14.00,2013-02-28 20:06:00,
2013-02-28 15:11:00,40.8,25.1,29.69,West,274,9.8,14.0,53,0.00,,BKN060,0.00,VWS V14.00,2013-02-28 20:11:00,
2013-02-28 15:16:00,43.3,27.6,29.69,SW,236,8.1,14.9,54,0.00,,BKN060,0.00,VWS V14.00,2013-02-28 20:16:00,
2013-02-28 15:21:00,42.1,26.4,29.69,North,1,9.3,19.5,53,0.00,,BKN060,0.00,VWS V14.00,2013-02-28 20:21:00,
2013-02-28 15:26:00,40.7,25.2,29.70,NNW,333,8.8,19.5,54,0.00,,BKN060,0.00,VWS V14.00,2013-02-28 20:26:00,
2013-02-28 15:31:00,38.1,22.5,29.70,NW,325,8.0,14.6,53,0.00,,BKN060,0.00,VWS V14.00,2013-02-28 20:31:00,
2013-02-28 15:36:00,40.2,24.0,29.70,WNW,295,8.7,14.6,52,0.00,,BKN060,0.00,VWS V14.00,2013-02-28 20:36:00,
2013-02-28 15:41:00,40.0,23.6,29.70,NW,316,5.6,15.2,52,0.00,,BKN060,0.00,VWS V14.00,2013-02-28 20:41:00,
2013-02-28 15:46:00,40.6,24.4,29.70,WNW,295,14.0,14.0,52,0.00,,BKN060,0.00,VWS V14.00,2013-02-28 20:46:00,
2013-02-28 15:51:00,41.4,25.1,29.70,NW,314,9.0,16.5,52,0.00,,BKN060,0.00,VWS V14.00,2013-02-28 20:51:00,
2013-02-28 15:56:00,41.3,25.2,29.70,North,3,12.7,16.5,52,0.00,,BKN060,0.00,VWS V14.00,2013-02-28 20:56:00,
2013-02-28 16:01:00,41.3,24.8,29.70,NNW,329,11.9,14.5,52,0.00,,BKN060,0.00,VWS V14.00,2013-02-28 21:01:00,
2013-02-28 16:06:00,43.7,26.9,29.70,North,350,13.5,14.5,51,0.00,,BKN060,0.00,VWS V14.00,2013-02-28 21:06:00,
2013-02-28 16:11:00,41.8,25.2,29.70,North,357,9.9,14.5,51,0.00,,BKN060,0.00,VWS V14.00,2013-02-28 21:11:00,
2013-02-28 16:16:00,41.3,24.6,29.70,North,11,3.2,10.8,51,0.00,,BKN060,0.00,VWS V14.00,2013-02-28 21:16:00,
2013-02-28 16:21:00,43.5,26.8,29.70,North,4,15.0,15.3,51,0.00,,BKN060,0.00,VWS V14.00,2013-02-28 21:21:00,
2013-02-28 16:26:00,43.7,27.1,29.70,NNW,345,9.1,15.3,52,0.00,,BKN060,0.00,VWS V14.00,2013-02-28 21:26:00,
2013-02-28 16:31:00,42.4,25.9,29.70,North,0,6.5,13.7,52,0.00,,BKN060,0.00,VWS V14.00,2013-02-28 21:31:00,
2013-02-28 16:36:00,43.8,27.7,29.70,NW,305,3.3,17.8,53,0.00,,BKN060,0.00,VWS V14.00,2013-02-28 21:36:00,
2013-02-28 16:41:00,43.7,27.5,29.71,NNE,17,4.7,17.8,53,0.00,,BKN060,0.00,VWS V14.00,2013-02-28 21:41:00,
2013-02-28 16:46:00,42.5,25.7,29.71,North,1,9.7,18.2,51,0.00,,BKN055,0.00,VWS V14.00,2013-02-28 21:46:00,
2013-02-28 16:51:00,44.3,27.7,29.71,NW,319,8.2,18.2,52,0.00,,BKN055,0.00,VWS V14.00,2013-02-28 21:51:00,
2013-02-28 16:56:00,44.4,27.9,29.71,NW,323,12.6,18.2,52,0.00,,BKN055,0.00,VWS V14.00,2013-02-28 21:56:00,
2013-02-28 17:01:00,44.0,27.7,29.71,NW,307,7.8,10.9,52,0.00,,BKN055,0.00,VWS V14.00,2013-02-28 22:01:00,
2013-02-28 17:06:00,43.5,27.2,29.71,NW,321,9.5,13.2,52,0.00,,BKN055,0.00,VWS V14.00,2013-02-28 22:06:00,
2013-02-28 17:11:00,40.6,24.7,29.71,North,359,8.1,15.4,53,0.00,,BKN055,0.00,VWS V14.00,2013-02-28 22:11:00,
2013-02-28 17:16:00,40.9,25.0,29.71,NW,307,12.9,14.5,53,0.00,,BKN055,0.00,VWS V14.00,2013-02-28 22:16:00,
2013-02-28 17:21:00,41.3,25.4,29.72,WNW,288,3.3,14.5,53,0.00,,BKN055,0.00,VWS V14.00,2013-02-28 22:21:00,
2013-02-28 17:26:00,41.2,25.3,29.72,North,354,8.0,14.5,53,0.00,,BKN055,0.00,VWS V14.00,2013-02-28 22:26:00,
2013-02-28 17:31:00,40.6,25.0,29.72,NW,308,8.6,8.6,53,0.00,,BKN055,0.00,VWS V14.00,2013-02-28 22:31:00,
2013-02-28 17:36:00,42.0,26.8,29.72,NW,318,8.1,10.5,54,0.00,,BKN055,0.00,VWS V14.00,2013-02-28 22:36:00,
2013-02-28 17:41:00,42.5,27.4,29.73,NW,305,0.0,10.5,55,0.00,,BKN055,0.00,VWS V14.00,2013-02-28 22:41:00,
2013-02-28 17:46:00,42.0,26.9,29.73,West,270,4.1,9.5,55,0.00,,SCT055,0.00,VWS V14.00,2013-02-28 22:46:00,
2013-02-28 17:51:00,41.1,26.4,29.73,WNW,297,3.2,9.5,56,0.00,,SCT055,0.00,VWS V14.00,2013-02-28 22:51:00,
2013-02-28 17:56:00,41.3,26.9,29.73,NW,318,7.3,9.7,56,0.00,,SCT055,0.00,VWS V14.00,2013-02-28 22:56:00,
2013-02-28 18:02:00,43.5,29.1,29.73,NW,312,4.7,6.2,56,0.00,,SCT055,0.00,VWS V14.00,2013-02-28 23:02:00,
2013-02-28 18:07:00,44.0,29.8,29.73,North,10,7.3,7.3,57,0.00,,SCT055,0.00,VWS V14.00,2013-02-28 23:07:00,
2013-02-28 18:12:00,43.9,29.7,29.73,NW,321,6.0,11.3,57,0.00,,SCT055,0.00,VWS V14.00,2013-02-28 23:12:00,
2013-02-28 18:17:00,44.0,29.7,29.74,NNW,343,6.3,11.2,57,0.00,,SCT055,0.00,VWS V14.00,2013-02-28 23:17:00,
2013-02-28 18:22:00,44.0,29.8,29.74,WNW,292,6.4,12.9,57,0.00,,SCT055,0.00,VWS V14.00,2013-02-28 23:22:00,
2013-02-28 18:27:00,43.8,29.8,29.74,North,10,6.1,12.9,58,0.00,,SCT055,0.00,VWS V14.00,2013-02-28 23:27:00,
2013-02-28 18:32:00,43.4,29.7,29.74,NW,319,0.0,6.3,58,0.00,,SCT055,0.00,VWS V14.00,2013-02-28 23:32:00,
2013-02-28 18:37:00,42.8,29.2,29.74,NNW,338,6.6,9.9,58,0.00,,SCT055,0.00,VWS V14.00,2013-02-28 23:37:00,
2013-02-28 18:42:00,42.2,28.8,29.75,NNW,336,12.1,13.5,59,0.00,,SCT055,0.00,VWS V14.00,2013-02-28 23:42:00,
2013-02-28 18:47:00,42.5,29.2,29.75,NNW,347,0.0,8.8,59,0.00,,BKN055,0.00,VWS V14.00,2013-02-28 23:47:00,
2013-02-28 18:52:00,42.3,29.2,29.75,North,353,8.6,10.5,59,0.00,,BKN055,0.00,VWS V14.00,2013-02-28 23:52:00,
2013-02-28 18:57:00,42.1,29.1,29.76,WNW,294,6.6,11.2,60,0.00,,BKN055,0.00,VWS V14.00,2013-02-28 23:57:00,
2013-02-28 19:02:00,42.0,29.1,29.76,NNE,18,6.6,11.4,60,0.00,,BKN055,0.00,VWS V14.00,2013-03-01 00:02:00,
2013-02-28 19:07:00,41.8,29.0,29.76,NNW,339,6.8,13.7,60,0.00,,BKN055,0.00,VWS V14.00,2013-03-01 00:07:00,
2013-02-28 19:12:00,42.0,29.3,29.76,NW,316,4.7,13.7,60,0.00,,BKN055,0.00,VWS V14.00,2013-03-01 00:12:00,
2013-02-28 19:17:00,41.8,29.4,29.76,North,349,6.2,6.2,61,0.00,,BKN055,0.00,VWS V14.00,2013-03-01 00:17:00,
2013-02-28 19:22:00,41.7,29.4,29.76,NNW,345,0.0,9.9,61,0.00,,BKN055,0.00,VWS V14.00,2013-03-01 00:22:00,
2013-02-28 19:27:00,41.3,29.2,29.76,NW,323,5.5,9.9,62,0.00,,BKN055,0.00,VWS V14.00,2013-03-01 00:27:00,
2013-02-28 19:32:00,41.4,29.4,29.77,NNW,330,0.0,0.0,62,0.00,,BKN055,0.00,VWS V14.00,2013-03-01 00:32:00,
2013-02-28 19:37:00,41.3,29.5,29.77,North,3,0.0,7.5,63,0.00,,BKN055,0.00,VWS V14.00,2013-03-01 00:37:00,
2013-02-28 19:42:00,41.3,29.6,29.77,NNW,335,0.0,7.5,63,0.00,,BKN055,0.00,VWS V14.00,2013-03-01 00:42:00,
2013-02-28 19:47:00,41.0,29.5,29.77,NW,326,0.0,0.0,63,0.00,,BKN055,0.00,VWS V14.00,2013-03-01 00:47:00,
2013-02-28 19:52:00,40.8,29.4,29.77,West,281,0.0,7.0,63,0.00,,BKN055,0.00,VWS V14.00,2013-03-01 00:52:00,
2013-02-28 19:57:00,40.7,29.4,29.77,North,6,1.4,7.0,64,0.00,,BKN055,0.00,VWS V14.00,2013-03-01 00:57:00,
2013-02-28 20:02:00,40.6,29.4,29.77,NNW,343,1.9,5.7,64,0.00,,BKN055,0.00,VWS V14.00,2013-03-01 01:02:00,
2013-02-28 20:07:00,40.7,29.7,29.77,NNW,332,0.0,7.5,65,0.00,,BKN055,0.00,VWS V14.00,2013-03-01 01:07:00,
2013-02-28 20:12:00,40.4,29.6,29.77,West,274,0.0,7.5,65,0.00,,BKN055,0.00,VWS V14.00,2013-03-01 01:12:00,
2013-02-28 20:17:00,40.1,29.6,29.77,NW,311,0.0,0.0,66,0.00,,BKN055,0.00,VWS V14.00,2013-03-01 01:17:00,
2013-02-28 20:22:00,39.5,29.3,29.76,NW,311,0.0,0.0,67,0.00,,BKN055,0.00,VWS V14.00,2013-03-01 01:22:00,
2013-02-28 20:27:00,39.6,29.6,29.77,North,349,0.0,9.2,67,0.00,,BKN055,0.00,VWS V14.00,2013-03-01 01:27:00,
2013-02-28 20:32:00,39.8,29.9,29.77,NW,312,5.4,8.1,67,0.00,,BKN055,0.00,VWS V14.00,2013-03-01 01:32:00,
2013-02-28 20:37:00,39.7,30.0,29.77,NNW,332,6.7,14.4,68,0.00,,BKN055,0.00,VWS V14.00,2013-03-01 01:37:00,
2013-02-28 20:42:00,39.9,30.2,29.77,NE,48,4.5,14.4,68,0.00,,BKN055,0.00,VWS V14.00,2013-03-01 01:42:00,
2013-02-28 20:47:00,39.7,30.2,29.77,North,359,7.4,9.0,69,0.00,,SCT050,0.00,VWS V14.00,2013-03-01 01:47:00,
2013-02-28 20:52:00,39.6,30.3,29.77,NNW,342,8.5,10.6,69,0.00,,SCT050,0.00,VWS V14.00,2013-03-01 01:52:00,
2013-02-28 20:57:00,39.7,30.6,29.77,NNE,17,4.2,10.6,70,0.00,,SCT050,0.00,VWS V14.00,2013-03-01 01:57:00,
2013-02-28 21:02:00,39.5,30.5,29.77,NNW,340,8.3,8.3,70,0.00,,SCT050,0.00,VWS V14.00,2013-03-01 02:02:00,
2013-02-28 21:07:00,39.4,30.6,29.77,NW,305,2.8,8.8,70,0.00,,SCT050,0.00,VWS V14.00,2013-03-01 02:07:00,
2013-02-28 21:12:00,39.2,30.6,29.77,West,277,0.0,8.8,71,0.00,,SCT050,0.00,VWS V14.00,2013-03-01 02:12:00,
2013-02-28 21:17:00,38.8,30.4,29.77,NNW,339,3.4,7.1,71,0.00,,SCT050,0.00,VWS V14.00,2013-03-01 02:17:00,
2013-02-28 21:22:00,38.8,30.4,29.77,NNW,335,3.4,8.9,72,0.00,,SCT050,0.00,VWS V14.00,2013-03-01 02:22:00,
2013-02-28 21:27:00,38.8,30.5,29.78,North,353,5.0,8.9,72,0.00,,SCT050,0.00,VWS V14.00,2013-03-01 02:27:00,
2013-02-28 21:32:00,38.8,30.6,29.78,NW,307,0.0,8.1,72,0.00,,SCT050,0.00,VWS V14.00,2013-03-01 02:32:00,
2013-02-28 21:37:00,38.7,30.6,29.78,North,1,0.0,8.1,72,0.00,,SCT050,0.00,VWS V14.00,2013-03-01 02:37:00,
2013-02-28 21:42:00,38.7,30.7,29.78,NW,307,0.0,8.1,73,0.00,,SCT050,0.00,VWS V14.00,2013-03-01 02:42:00,
2013-02-28 21:47:00,38.4,30.6,29.79,West,276,3.4,7.5,73,0.00,,FEW050,0.00,VWS V14.00,2013-03-01 02:47:00,
2013-02-28 21:52:00,37.9,30.3,29.79,NW,311,3.0,11.2,74,0.00,,FEW050,0.00,VWS V14.00,2013-03-01 02:52:00,
2013-02-28 21:57:00,38.2,30.7,29.79,WNW,300,0.0,11.2,74,0.00,,FEW050,0.00,VWS V14.00,2013-03-01 02:57:00,
2013-02-28 22:02:00,38.2,30.7,29.79,NW,326,6.0,8.1,74,0.00,,FEW050,0.00,VWS V14.00,2013-03-01 03:02:00,
2013-02-28 22:07:00,38.3,30.8,29.79,West,280,4.2,9.6,74,0.00,,FEW050,0.00,VWS V14.00,2013-03-01 03:07:00,
2013-02-28 22:12:00,38.2,30.8,29.79,NNE,31,11.3,12.1,74,0.00,,FEW050,0.00,VWS V14.00,2013-03-01 03:12:00,
2013-02-28 22:17:00,38.4,30.9,29.79,North,359,0.0,8.7,74,0.00,,FEW050,0.00,VWS V14.00,2013-03-01 03:17:00,
2013-02-28 22:22:00,38.4,31.0,29.79,NNW,345,8.9,15.3,74,0.00,,FEW050,0.00,VWS V14.00,2013-03-01 03:22:00,
2013-02-28 22:27:00,38.3,31.0,29.79,North,11,5.8,15.3,75,0.00,,FEW050,0.00,VWS V14.00,2013-03-01 03:27:00,
2013-02-28 22:32:00,38.0,30.9,29.79,North,7,8.5,8.8,75,0.00,,FEW050,0.00,VWS V14.00,2013-03-01 03:32:00,
2013-02-28 22:37:00,38.2,31.2,29.78,North,349,9.3,12.6,76,0.00,,FEW050,0.00,VWS V14.00,2013-03-01 03:37:00,
2013-02-28 22:42:00,38.2,31.3,29.79,NNW,342,8.6,13.2,76,0.00,,FEW050,0.00,VWS V14.00,2013-03-01 03:42:00,
2013-02-28 22:47:00,38.2,31.4,29.78,NNW,340,7.1,8.9,76,0.00,,BKN043,0.00,VWS V14.00,2013-03-01 03:47:00,
2013-02-28 22:52:00,38.3,31.5,29.78,NNW,347,8.8,13.9,76,0.00,,BKN043,0.00,VWS V14.00,2013-03-01 03:52:00,
2013-02-28 22:57:00,38.3,31.5,29.78,North,7,11.8,13.9,76,0.00,,BKN043,0.00,VWS V14.00,2013-03-01 03:57:00,
2013-02-28 23:02:00,38.3,31.5,29.78,North,356,11.8,17.8,76,0.00,,BKN043,0.00,VWS V14.00,2013-03-01 04:02:00,
2013-02-28 23:07:00,38.4,31.5,29.79,NNW,330,9.6,17.8,76,0.00,,BKN043,0.00,VWS V14.00,2013-03-01 04:07:00,
2013-02-28 23:12:00,38.6,31.8,29.78,North,359,6.6,17.8,76,0.00,,BKN043,0.00,VWS V14.00,2013-03-01 04:12:00,
2013-02-28 23:17:00,38.5,31.7,29.78,WNW,300,3.5,11.4,76,0.00,,BKN043,0.00,VWS V14.00,2013-03-01 04:17:00,
2013-02-28 23:22:00,38.5,31.6,29.79,North,353,9.9,12.3,76,0.00,,BKN043,0.00,VWS V14.00,2013-03-01 04:22:00,
2013-02-28 23:27:00,38.6,31.7,29.79,North,4,5.2,12.3,76,0.00,,BKN043,0.00,VWS V14.00,2013-03-01 04:27:00,
2013-02-28 23:32:00,38.6,31.7,29.79,NW,307,3.4,7.0,76,0.00,,BKN043,0.00,VWS V14.00,2013-03-01 04:32:00,
2013-02-28 23:37:00,38.5,31.7,29.79,NNW,329,4.2,10.4,76,0.00,,BKN043,0.00,VWS V14.00,2013-03-01 04:37:00,
2013-02-28 23:42:00,38.3,31.5,29.79,NW,312,7.8,13.7,76,0.00,,BKN043,0.00,VWS V14.00,2013-03-01 04:42:00,
2013-02-28 23:47:00,38.6,31.8,29.78,NNE,17,6.0,9.5,76,0.00,,BKN045,0.00,VWS V14.00,2013-03-01 04:47:00,
2013-02-28 23:52:00,38.4,31.6,29.78,NNW,338,7.8,15.7,76,0.00,,BKN045,0.00,VWS V14.00,2013-03-01 04:52:00,
2013-02-28 23:57:00,38.5,31.9,29.78,NNW,333,4.3,15.7,77,0.00,,BKN045,0.00,VWS V14.00,2013-03-01 04:57:00,